Location: Izdebno
(52.6670°N, 16.2170°E)
Time: 22:14:01
(UTC+02:00)

Vanguard 2 Rocket - Pass Details

Date: 26 February 2024
Orbit: 555 x 3307 km, 32.9° (Epoch: 21 April)

Event Time Altitude Azimuth Distance (km) Brightness Sun altitude
Rises 13:37:36 0° 209° (SSW) 4,155 11.6 25.6°
Reaches altitude 10° 13:40:57 10° 193° (SSW) 3,576 11.6 25.4°
Maximum altitude 13:47:32 21° 149° (SSE) 3,508 10.5 25.0°
Drops below altitude 10° 13:56:40 10° 109° (ESE) 5,176 10.7 24.3°
Sets 14:03:00 0° 96° (E) 6,664 11.1 23.8°
